Regional Weather Roundup
Issued by NWS Northern Indiana

Home | Current Version | Previous Version | Text Only | Print | Product List | Glossary Off
Versions: 1 2 3 4 5 6 7 8 9 10 11 12 13 14 15 16 17 18 19 20 21 22 23 24 25 26 27 28 29 30 31 32 33 34 35 36 37 38 39 40 41 42 43 44 45 46 47 48 49 50

000
ASUS43 KIWX 181210
RWRIWX

KIWX WEATHER ROUNDUP
NATIONAL WEATHER SERVICE NORTHERN INDIANA
700 AM EST THU DEC 18 2014

NOTE: "FAIR" INDICATES FEW OR NO CLOUDS BELOW 12,000 FEET WITH NO
SIGNIFICANT WEATHER AND/OR OBSTRUCTIONS TO VISIBILITY.

* THESE STATIONS ARE NOT UNDER NWS QUALITY CONTROL. THEY ALSO MAY NOT
  REPORT WEATHER SUCH AS PRECIPITATION OR FOG.

INZ001>027-181300-
NORTHERN INDIANA

CITY           SKY/WX    TMP DP  RH WIND       PRES   REMARKS
GARY*          CLOUDY    27  18  69 W9        30.28S WCI  17
VALPARAISO     CLOUDY    24  17  74 SW9       30.27R WCI  14
6HR MIN TEMP:  24; 6HR MAX TEMP:  25;

MICHIGAN CITY* CLOUDY    27  19  74 SW5       30.27R WCI  21
LAPORTE*       CLOUDY    27  21  78 W7        30.26R WCI  20
6HR MIN TEMP:  27; 6HR MAX TEMP:  28;

KNOX*          CLOUDY    26  20  78 W7        30.26R WCI  18
6HR MIN TEMP:   9; 6HR MAX TEMP:  81;

SOUTH BEND     CLOUDY    28  21  75 W5        30.24F WCI  23
6HR MIN TEMP:  28; 6HR MAX TEMP:  29;

ELKHART*       CLOUDY    28  21  74 W3        30.24
GOSHEN         CLOUDY    27  21  78 W5        30.23S WCI  22
6HR MIN TEMP:  27; 6HR MAX TEMP:  27;

MONTICELLO*    CLOUDY    25  18  77 CALM      30.27R
6HR MIN TEMP:  25; 6HR MAX TEMP:  26;

LOGANSPORT*    CLOUDY    27  19  74 W3        30.29R
ROCHESTER*     CLOUDY    28  23  80 W6        30.27R WCI  22
WARSAW*        CLOUDY    27  21  80 W5        30.24S WCI  21
ANGOLA*        CLOUDY    27  21  80 W5        30.21R WCI  21
FORT WAYNE     CLOUDY    27  21  78 CALM      30.24F
6HR MIN TEMP:  27; 6HR MAX TEMP:  27;

HUNTINGTON*    CLOUDY    26  22  83 W3        30.24S
6HR MIN TEMP:  26; 6HR MAX TEMP:  26;

PERU/GRISSOM   CLOUDY    25  22  88 NW3       30.27R
6HR MIN TEMP:  25; 6HR MAX TEMP:  26;

MARION*        CLOUDY    26  21  83 NW3       30.26R
6HR MIN TEMP:  22; 6HR MAX TEMP:  50;


$$
INZ028>050-181300-
CENTRAL INDIANA

CITY           SKY/WX    TMP DP  RH WIND       PRES   REMARKS
LAFAYETTE      CLOUDY    24  17  74 CALM      30.29R
6HR MIN TEMP:  24; 6HR MAX TEMP:  25;

KOKOMO*        CLOUDY    27  18  69 W5        30.27R WCI  21
6HR MIN TEMP:  25; 6HR MAX TEMP:  27;

MUNCIE*        CLOUDY    26  18  71 CALM      30.23F
6HR MIN TEMP:  25; 6HR MAX TEMP:  26;

INDIANAPOLIS   CLOUDY    25  18  74 CALM      30.26R
6HR MIN TEMP:  24; 6HR MAX TEMP:  25;


$$
MIZ043>046-050>051-056>058-064>065-071>073-077>080-181300-
SOUTHWEST LOWER MICHIGAN

CITY           SKY/WX    TMP DP  RH WIND       PRES   REMARKS
BATTLE CREEK   CLOUDY    30  23  75 W8        30.21R WCI  22
6HR MIN TEMP:  29; 6HR MAX TEMP:  30;

BENTON HARBOR  CLOUDY    28  22  78 W3        30.23F
6HR MIN TEMP:  27; 6HR MAX TEMP:  28;

COLDWATER*     CLOUDY    28  24  84 W5        30.21R WCI  23
6HR MIN TEMP:  28; 6HR MAX TEMP:  28;

HILLSDALE*     CLOUDY    28  25  89 W5        30.19S WCI  23
6HR MIN TEMP:  28; 6HR MAX TEMP:  28;

HOLLAND        CLOUDY    33  25  72 W6        30.22S WCI  28
6HR MIN TEMP:  32; 6HR MAX TEMP:  33;

GRAND RAPIDS   CLOUDY    30  25  81 W9        30.20R WCI  22
6HR MIN TEMP:  29; 6HR MAX TEMP:  30;

KALAMAZOO      CLOUDY    30  23  75 W5        30.22S WCI  25
6HR MIN TEMP:  29; 6HR MAX TEMP:  30;

STURGIS*       CLOUDY    27  23  86 W5        30.21S WCI  21
THREE RIVERS*  CLOUDY    29  24  81 W3        30.22S

$$
OHZ001>008-015>018-024>025-181300-
NORTHWEST OHIO

CITY           SKY/WX    TMP DP  RH WIND       PRES   REMARKS
WAUSEON*       CLOUDY    28  23  80 W8        30.22S WCI  20
FINDLAY        CLOUDY    29  22  75 W9        30.23R WCI  20
6HR MIN TEMP:  28; 6HR MAX TEMP:  29;

TOLEDO EXPRESS CLOUDY    29  22  75 W7        30.22S WCI  22
6HR MIN TEMP:  28; 6HR MAX TEMP:  29;

TOLEDO METCALF CLOUDY    30  21  69 W8        30.23S WCI  22
6HR MIN TEMP:  29; 6HR MAX TEMP:  30;

LIMA           CLOUDY    30  21  69 W6        30.24R WCI  24
6HR MIN TEMP:  30; 6HR MAX TEMP:  30;


$$
AND FOR LAKE MICHIGAN COASTAL AND OPEN LAKE BUOY OBSERVATIONS

STATION/POSITION TEMP    WIND        PRES    VSBY  WAVE
                 AIR SEA DIR/SP/G                  HT/PER
                 (F)     (DEG/KT/KT) (MB)    (MI)  (FT/S)
CALUMET HARBOR    25     200/  2/  7 1023.8F
SAINT JOSEPH      29     280/  2/  5 1024.0F

$$
&&


USA.gov is the U.S. government's official web portal to all federal, state and local government web resources and services.